Regional Weather Roundup
Issued by NWS

Home | Current Version | Previous Version | Text Only | Print | Product List | Glossary Off
Versions: 1 2 3 4 5 6 7 8 9 10 11 12 13 14 15 16 17 18 19 20 21 22 23 24 25 26 27 28 29 30 31 32 33 34 35 36 37 38 39 40 41 42 43 44 45 46 47 48 49 50

000
ASUS43 KDTX 281201
RWRMI
MICHIGAN HOURLY REGIONAL WEATHER ROUNDUP
NATIONAL WEATHER SERVICE DETROIT/PONTIAC MI
800 AM EDT SAT MAR 28 2015

NOTE: "FAIR" INDICATES FEW OR NO CLOUDS BELOW 12,000 FEET WITH NO
SIGNIFICANT WEATHER AND/OR OBSTRUCTION TO VISIBILITY.

MIZ047>049-052>055-059>063-066>070-074>076-081>083-281300-
SOUTHEAST LOWER MICHIGAN

CITY           SKY/WX    TMP DP  RH WIND       PRES   REMARKS
ADRIAN         CLEAR     15   7  70 N8        30.25R WCI   4
6HR MIN TEMP:  15; 6HR MAX TEMP:  18;

ALMA           CLEAR     12   6  76 CALM      30.28R
ANN ARBOR      MOCLDY    15   7  70 N9        30.23R WCI   3
BAD AXE        CLOUDY    20   9  61 CALM      30.23R
6HR MIN TEMP:  19; 6HR MAX TEMP:  21;

CARO           CLOUDY    17  11  79 NW7       30.24R WCI   7
DETROIT CITY   FLURRIES  21  10  62 N7        30.23R WCI  12
6HR MIN TEMP:  19; 6HR MAX TEMP:  21; 6HR PCP: TRACE;

DETROIT        MOCLDY    19   8  62 NW10      30.24R WCI   7
6HR MIN TEMP:  15; 6HR MAX TEMP:  19;

FLINT          MOCLDY    15   7  70 NW8       30.25R WCI   4
6HR MIN TEMP:  13; 6HR MAX TEMP:  17;

GROSSE ILE     CLOUDY    19   7  58 NW7       30.22R WCI  10
HILLSDALE      CLEAR     12   7  77 N3        30.21R
HOWELL         CLEAR     14   6  72 NW6       30.23R WCI   5
6HR MIN TEMP:  12; 6HR MAX TEMP:  14;


CITY           SKY/WX    TMP DP  RH WIND       PRES   REMARKS
JACKSON        CLEAR     12   7  80 NW3       30.24R
6HR MIN TEMP:  11; 6HR MAX TEMP:  15;

LAMBERTVILLE   MOCLDY    19   9  63 N7        30.24R WCI  10
LANSING        CLEAR     12   6  77 NW3       30.26R
6HR MIN TEMP:  11; 6HR MAX TEMP:  17;

LAPEER         CLOUDY    17  12  78 N6        30.23R WCI   9
MASON          CLEAR     13   8  80 W3        30.25R
MONROE         CLOUDY    18   9  68 N6        30.22R WCI   9
MT. CLEMENS    MOCLDY    17  10  74 N7        30.20R WCI   7
6HR MIN TEMP:  16; 6HR MAX TEMP:  19; 6HR PCP:  0.01;

PONTIAC        MOCLDY    16   7  67 NW9       30.20R WCI   4
6HR MIN TEMP:  13; 6HR MAX TEMP:  16;

PORT HOPE        N/A     22   8  55 NE10      30.22R WCI  11
6HR MIN TEMP:  22; 6HR MAX TEMP:  24;

PORT HURON     PTCLDY    16   5  62 N6        30.23R WCI   7
TRI CITIES     CLEAR     15   8  73 NW8       30.27R WCI   4
6HR MIN TEMP:  15; 6HR MAX TEMP:  17;

TROY           FLURRIES  20  10  65 CALM      30.25R
SAGINAW HB     CLEAR     16  10  79 NW7       30.26R WCI   6
$$
MIZ043>046-050>051-056>058-064>065-071>073-077>080-281300-
SOUTHWEST LOWER MICHIGAN

CITY           SKY/WX    TMP DP  RH WIND       PRES   REMARKS
BATTLE CREEK   FAIR      13   5  70 N6        30.26R WCI   4
6HR MIN TEMP:  12; 6HR MAX TEMP:  18;

BENTON HARBOR  CLEAR     10   7  87 CALM      30.29R
6HR MIN TEMP:  10; 6HR MAX TEMP:  18;

BIG RAPIDS     CLEAR      8   4  83 CALM      30.26R
6HR MIN TEMP:   8; 6HR MAX TEMP:  12;

COLDWATER      CLEAR     13   7  75 CALM      30.24R
6HR MIN TEMP:  13; 6HR MAX TEMP:  19;

FREMONT        FAIR      10   4  75 CALM      30.28R
HOLLAND        CLEAR     15   5  64 NE3       30.30R
6HR MIN TEMP:  14; 6HR MAX TEMP:  18;

GRAND RAPIDS   CLEAR     14   4  64 CALM      30.28R
6HR MIN TEMP:  12; 6HR MAX TEMP:  15;

IONIA          FAIR      14   7  74 NW3       30.26R
KALAMAZOO      CLEAR     13   5  70 CALM      30.27R
6HR MIN TEMP:  12; 6HR MAX TEMP:  18;

LUDINGTON      CLEAR      8   4  85 CALM      30.31R
6HR MIN TEMP:   8; 6HR MAX TEMP:  13;

MARSHALL       CLEAR     12   7  81 CALM      30.24R
MOUNT PLEASANT CLEAR     12   5  76 W3        30.27R
6HR MIN TEMP:  11; 6HR MAX TEMP:  15;

MUSKEGON       CLEAR     14   4  64 CALM      30.31R
6HR MIN TEMP:  12; 6HR MAX TEMP:  17;

SOUTH HAVEN    FAIR      13   6  73 CALM      30.29R
$$
MIZ016>042-281300-
NORTHERN LOWER MICHIGAN

CITY           SKY/WX    TMP DP  RH WIND       PRES   REMARKS
ALPENA         CLEAR      9   5  84 VRB3      30.27R
6HR MIN TEMP:   9; 6HR MAX TEMP:  13;

BEAVER ISLAND  CLEAR      3   0  85 CALM      30.30R
6HR MIN TEMP:   3; 6HR MAX TEMP:   8;

BELLAIRE       CLEAR      5   2  85 CALM      30.31R
6HR MIN TEMP:   5; 6HR MAX TEMP:   9;

CADILLAC       CLEAR      3  -1  81 CALM      30.23R
CHARLEVOIX     CLEAR      7   4  89 CALM      30.32R
6HR MIN TEMP:   6; 6HR MAX TEMP:  12;

FRANKFORT      CLEAR      9   1  72 CALM      30.31R
GAYLORD        CLEAR      3  -1  83 CALM      30.22R
6HR MIN TEMP:   3; 6HR MAX TEMP:   9;

GRAYLING       CLEAR      4  -1  81 W3        30.26R
6HR MIN TEMP:   2; 6HR MAX TEMP:   6;

HARBOR SPRINGS CLEAR      5   1  84 CALM      30.28R
HOUGHTON LAKE  CLEAR      6   1  80 W3        30.25R
6HR MIN TEMP:   3; 6HR MAX TEMP:  10;

MANISTEE       CLEAR      7   1  78 CALM      30.30R
OSCODA         CLEAR     11   8  87 NW6       30.25R WCI   2
PELLSTON       CLEAR      1  -4  79 CALM      30.28R
6HR MIN TEMP:  -1; 6HR MAX TEMP:   7;

ROGERS CITY    CLEAR     10   8  92 W6        30.28R WCI   0
TRAVERSE CITY  CLEAR      7   3  84 CALM      30.30R
6HR MIN TEMP:   6; 6HR MAX TEMP:  15;

$$
MIZ007>008-015-281300-
EASTERN UPPER MICHIGAN

CITY           SKY/WX    TMP DP  RH WIND       PRES   REMARKS
KINROSS        CLEAR      1   0  92 CALM      30.27R
6HR MIN TEMP:   0; 6HR MAX TEMP:   5;

MACKINAC ISLAN CLEAR      7   3  86 NW3       30.27R
6HR MIN TEMP:   7; 6HR MAX TEMP:  12;

NEWBERRY       CLEAR     -5  -7  90 W3        30.27R
S. S. MARIE    FAIR       3  -1  83 NW3       30.26R
6HR MIN TEMP:   1; 6HR MAX TEMP:   7;

$$
MIZ004>006-011>014-085-281300-
CENTRAL UPPER MICHIGAN

CITY           SKY/WX    TMP DP  RH WIND       PRES   REMARKS
MANISTIQUE     PTCLDY     0  -2  88 NW3       30.30R
ESCANABA       CLEAR      0  -6  78 CALM      30.30R
6HR MIN TEMP:   0; 6HR MAX TEMP:   7;

MENOMINEE      CLEAR      9   7  92 CALM      30.29R
6HR MIN TEMP:   9; 6HR MAX TEMP:  14;

SAWYER-GWINN   CLEAR     -9 -15  77 CALM      30.23R
$$
MIZ001>003-009>011-084-281300-
WESTERN UPPER MICHIGAN

CITY           SKY/WX    TMP DP  RH WIND       PRES   REMARKS
IRON MOUNTAIN  CLEAR      1  -4  79 CALM      30.24R
6HR MIN TEMP:   0; 6HR MAX TEMP:   7;

HOUGHTON       CLEAR     -4  -5  95 CALM      30.21R
6HR MIN TEMP:  -8; 6HR MAX TEMP:   8;

COPPER HARBOR    N/A      1  -4  79 SW8       30.24R WCI -13
6HR MIN TEMP:  -1; 6HR MAX TEMP:   5;

IRONWOOD       CLEAR      5   1  85 CALM      30.19R
6HR MIN TEMP:   3; 6HR MAX TEMP:  10;

$$

ABBREVIATIONS USED IN REMARKS
   TC - TEMPERATURE IN CELSIUS
  WCI - WIND CHILL INDEX
   HX - HEAT INDEX
  VSB - VISIBILITY




USA.gov is the U.S. government's official web portal to all federal, state and local government web resources and services.